Lake Travis Weather Center

Moon Phase Calendar



Lake Travis Water Level
Online Cameras

 


      

Current Conditions in Lago Vista
10/7/2022 9:59:14 AM

74°F
Feels Like 74
Clouds
Humidity
58%
Pressure
30.24"
Wind
4.6 mph (W)
Dew Point
58°F
UV Index
1/10 (Low)
Visibility
6 mi

Hourly Forecast

Date & Time Fri, Oct 7
9:00 AM
Fri, Oct 7
10:00 AM
Fri, Oct 7
11:00 AM
Fri, Oct 7
12:00 PM
Fri, Oct 7
1:00 PM
Fri, Oct 7
2:00 PM
Fri, Oct 7
3:00 PM
Fri, Oct 7
4:00 PM
Fri, Oct 7
5:00 PM
Fri, Oct 7
6:00 PM
Fri, Oct 7
7:00 PM
Fri, Oct 7
8:00 PM
Fri, Oct 7
9:00 PM
Fri, Oct 7
10:00 PM
Fri, Oct 7
11:00 PM
Sat, Oct 8
12:00 AM
Sat, Oct 8
1:00 AM
Sat, Oct 8
2:00 AM
Sat, Oct 8
3:00 AM
Sat, Oct 8
4:00 AM
Sat, Oct 8
5:00 AM
Sat, Oct 8
6:00 AM
Sat, Oct 8
7:00 AM
Sat, Oct 8
8:00 AM
Sat, Oct 8
9:00 AM
Sat, Oct 8
10:00 AM
Sat, Oct 8
11:00 AM
Sat, Oct 8
12:00 PM
Sat, Oct 8
1:00 PM
Sat, Oct 8
2:00 PM
Sat, Oct 8
3:00 PM
Sat, Oct 8
4:00 PM
Sat, Oct 8
5:00 PM
Sat, Oct 8
6:00 PM
Sat, Oct 8
7:00 PM
Sat, Oct 8
8:00 PM
Sat, Oct 8
9:00 PM
Sat, Oct 8
10:00 PM
Sat, Oct 8
11:00 PM
Sun, Oct 9
12:00 AM
Sun, Oct 9
1:00 AM
Sun, Oct 9
2:00 AM
Sun, Oct 9
3:00 AM
Sun, Oct 9
4:00 AM
Sun, Oct 9
5:00 AM
Sun, Oct 9
6:00 AM
Sun, Oct 9
7:00 AM
Sun, Oct 9
8:00 AM
Condition
Clouds

Clouds

Clouds

Clouds

Clouds

Clouds

Clouds

Clouds

Clouds

Clouds

Clouds

Clouds

Clouds

Clouds

Clouds

Clouds

Clouds

Clouds

Clouds

Clouds

Clouds

Clear

Clear

Clear

Clear

Clear

Clear

Clear

Clear

Clear

Clear

Clear

Clear

Clear

Clear

Clouds

Clouds

Clouds

Clouds

Clouds

Clouds

Clear

Clear

Clear

Clear

Clouds

Clouds

Clouds
Temperature 74°F74°F75°F78°F80°F83°F86°F86°F85°F84°F80°F78°F76°F75°F73°F71°F70°F69°F68°F67°F67°F65°F64°F64°F70°F75°F79°F82°F84°F86°F87°F87°F86°F85°F79°F77°F76°F75°F74°F73°F70°F68°F66°F66°F65°F64°F64°F65°F
Feels Like 73°F74°F75°F77°F80°F81°F83°F83°F83°F82°F80°F77°F75°F74°F72°F70°F68°F68°F67°F66°F65°F64°F63°F63°F69°F74°F79°F81°F82°F83°F84°F84°F84°F83°F79°F76°F75°F74°F73°F72°F68°F66°F65°F64°F64°F64°F63°F65°F
Cloudiness 100%100%100%100%100%100%100%100%100%100%99%100%99%99%92%84%76%26%17%14%12%10%8%2%2%2%2%2%2%2%4%4%5%5%10%62%63%62%70%75%78%3%3%3%4%18%26%71%
Visibility 6 mi6 mi6 mi6 mi6 mi6 mi6 mi6 mi6 mi6 mi6 mi6 mi6 mi6 mi6 mi6 mi6 mi6 mi6 mi6 mi6 mi6 mi6 mi6 mi6 mi6 mi6 mi6 mi6 mi6 mi6 mi6 mi6 mi6 mi6 mi6 mi6 mi6 mi6 mi6 mi6 mi6 mi6 mi6 mi6 mi6 mi6 mi6 mi
Precipitation 0%0%0%0%0%0%0%0%0%0%0%0%0%0%0%0%0%0%0%0%0%0%0%0%0%0%0%0%0%0%0%0%0%0%0%0%0%0%0%0%0%0%0%0%0%0%0%0%
Humidity 57%58%54%48%41%35%28%28%28%30%35%36%39%42%46%47%48%48%48%47%47%48%49%51%42%37%33%31%28%26%25%24%25%26%33%34%36%36%38%40%46%49%54%57%61%65%68%68%
Dew Point 58°F58°F58°F56°F54°F52°F49°F49°F49°F49°F49°F49°F49°F50°F50°F49°F49°F49°F48°F46°F45°F45°F45°F46°F46°F47°F48°F48°F48°F47°F47°F46°F46°F47°F47°F47°F47°F47°F47°F47°F48°F48°F49°F50°F51°F52°F53°F54°F
Pressure 30.24"30.24"30.24"30.24"30.21"30.18"30.12"30.12"30.09"30.12"30.12"30.15"30.18"30.18"30.21"30.21"30.21"30.21"30.21"30.21"30.21"30.24"30.24"30.27"30.27"30.3"30.27"30.27"30.24"30.21"30.15"30.12"30.12"30.12"30.15"30.15"30.18"30.18"30.21"30.21"30.21"30.21"30.21"30.21"30.21"30.21"30.21"30.24"
Wind Speed 2.2 mph2.5 mph0.9 mph3.2 mph5.5 mph5.6 mph6.9 mph6.7 mph6.3 mph4.9 mph5.8 mph5.9 mph4.1 mph2.8 mph1.2 mph3 mph3.7 mph2.5 mph2.2 mph2.7 mph4.8 mph5.8 mph5.5 mph4.6 mph6.1 mph7.9 mph8.9 mph9.7 mph9.5 mph9.4 mph9.6 mph9.8 mph9.8 mph8.9 mph6.2 mph5.3 mph3.2 mph3.8 mph4.9 mph6.4 mph5 mph3.8 mph2.4 mph1.7 mph1.4 mph1.8 mph2.6 mph2.9 mph
Wind
Direction
288°
WNW
269°
W
19°
NNE
80°
E
83°
E
86°
E
82°
E
81°
E
82°
E
80°
E
77°
ENE
100°
E
144°
SE
194°
SSW
308°
NW

N
62°
ENE
78°
ENE
65°
ENE
31°
NNE
35°
NE
39°
NE
38°
NE
44°
NE
54°
NE
62°
ENE
70°
ENE
76°
ENE
76°
ENE
74°
ENE
71°
ENE
70°
ENE
72°
ENE
81°
E
94°
E
111°
ESE
98°
E
74°
ENE
78°
ENE
81°
E
103°
ESE
124°
SE
128°
SE
143°
SE
161°
SSE
160°
SSE
148°
SSE
128°
SE

Daily Forecast

Date High Low Precip. Humidity
Today
Oct 7

Clouds
86 °F
68 °F
0%
41%
Saturday
Oct 8

Clear
87 °F
64 °F
0%
28%
Sunday
Oct 9

Clouds
86 °F
64 °F
0%
32%
Monday
Oct 10

Clouds
87 °F
63 °F
0%
31%
Tuesday
Oct 11

Clouds
87 °F
62 °F
0%
31%
Wednesday
Oct 12

Rain
86 °F
63 °F
24%
53%
Thursday
Oct 13

Rain
78 °F
59 °F
100%
20%
Friday
Oct 14

Clear
79 °F
54 °F
0%
14%
Saturday
Oct 15

Clear
84 °F
56 °F
0%
16%
Sunday
Oct 16

Clear
89 °F
58 °F
0%
17%
Monday
Oct 17

Clear
81 °F
61 °F
0%
24%
Tuesday
Oct 18

Clear
77 °F
52 °F
0%
15%
Wednesday
Oct 19

Clear
76 °F
52 °F
0%
20%
Thursday
Oct 20

Clear
80 °F
53 °F
0%
22%
Friday
Oct 21

Clear
85 °F
54 °F
0%
30%
Saturday
Oct 22

Clear
81 °F
58 °F
0%
13%

Temperature 8-14 Day Outlook



Precipitation 8-14 Day Outlook






About Us
Contact Us
Site Map
Search Site
Advertise With Us
   
Travis.USLakes.info
THE LAKE TRAVIS WEBSITE

Copyright 2022, Lakes Online
Privacy    |    Legal